This is the latest recevied weather packets stored in our database for station/object W4KAB. If no packets are shown the sender has not sent any weather packets the latest 10 day(s).
| Time | Temp. | Humidity | Pressure | Rain* | Wind** | Luminosity | Snow |
|---|---|---|---|---|---|---|---|
| 1777743420 | 14.44° C | 45% | 1014.4 hPa | 0 mm | - | 173 W/m² | - |
| 1777743118 | 14.44° C | 43% | 1014.6 hPa | 0 mm | - | 146 W/m² | - |
| 1777742815 | 14.44° C | 46% | 1014.6 hPa | 0 mm | - | 589 W/m² | - |
| 1777742511 | 13.89° C | 47% | 1014.6 hPa | 0 mm | - | 326 W/m² | - |
| 1777742207 | 13.89° C | 47% | 1014.7 hPa | 0 mm | - | 248 W/m² | - |
| 1777741904 | 13.89° C | 45% | 1014.7 hPa | 0 mm | - | 230 W/m² | - |
| 1777741601 | 13.89° C | 44% | 1014.8 hPa | 0 mm | - | 308 W/m² | - |
| 1777741298 | 13.89° C | 46% | 1015 hPa | 0 mm | - | 240 W/m² | - |
| 1777740994 | 13.89° C | 46% | 1015 hPa | 0 mm | - | 186 W/m² | - |
| 1777740692 | 13.33° C | 50% | 1015.1 hPa | 0 mm | - | 303 W/m² | - |
| 1777740387 | 13.89° C | 47% | 1015.3 hPa | 0 mm | - | 468 W/m² | - |
| 1777740085 | 13.33° C | 49% | 1015.5 hPa | 0 mm | - | 234 W/m² | - |
| 1777739781 | 13.33° C | 49% | 1015.5 hPa | 0 mm | - | 150 W/m² | - |
| 1777739478 | 12.78° C | 48% | 1015.5 hPa | 0 mm | - | 164 W/m² | - |
| 1777739174 | 12.78° C | 51% | 1015.6 hPa | 0 mm | - | 172 W/m² | - |
| 1777738872 | 12.78° C | 50% | 1015.7 hPa | 0 mm | - | 118 W/m² | - |
| 1777738569 | 12.78° C | 51% | 1015.7 hPa | 0 mm | - | 100 W/m² | - |
| 1777738266 | 12.22° C | 53% | 1015.9 hPa | 0 mm | - | 104 W/m² | - |
| 1777737964 | 12.22° C | 50% | 1015.9 hPa | 0 mm | - | 77 W/m² | - |
| 1777737662 | 12.78° C | 50% | 1016.1 hPa | 0 mm | - | 77 W/m² | - |
| 1777737360 | 12.78° C | 51% | 1016.1 hPa | 0 mm | - | 91 W/m² | - |
| 1777737057 | 12.78° C | 50% | 1015.8 hPa | 0 mm | - | 99 W/m² | - |
| 1777736752 | 12.22° C | 49% | 1015.9 hPa | 0 mm | - | 208 W/m² | - |
| 1777736125 | 11.67° C | 50% | 1016.1 hPa | 0 mm | - | 134 W/m² | - |
| 1777735822 | 11.67° C | 56% | 1016.2 hPa | 0 mm | - | 84 W/m² | - |
* Rain latest hour (hover to see other rain measurements)
** Current wind speed in m/s (hover to see current wind gust speed)